This demonstration page uses our WeatherBlox Daily Observations layout. Learn more.

Hourly Observations for January 23, 2020

Temp ( °F °C ) Dew Point ( °F °C ) Humidity (%) Winds ( mph kmh ) Pressure ( in mb ) Visibility ( mi km ) Precip ( " mm )
12:15 am 00:15 Cloudy 38 3.1 37 2.7 97 97 NW 12 19 29.98 1015 10 16.0934 0 0
12:35 am 00:35 Cloudy 38 3.1 36 2.3 95 95 NW 21 33 29.98 1015 10 16.0934 0 0
12:55 am 00:55 Cloudy with Light Drizzle 37 2.6 35 1.8 95 95 NNW 13 20 29.98 1015 10 16.0934 0 0
1:15 am 01:15 Cloudy 37 2.5 35 1.9 96 96 NW 10 17 29.99 1016 10 16.0934 0 0
1:35 am 01:35 Cloudy 36 2.2 35 1.7 97 97 NW 10 17 29.98 1015 10 16.0934 0 0
1:55 am 01:55 Cloudy 36 2.3 35 1.6 95 95 NW 13 20 29.99 1016 10 16.0934 0 0
2:15 am 02:15 Cloudy 36 2.3 35 1.5 95 95 NW 13 20 29.99 1016 10 16.0934 0 0
2:35 am 02:35 Cloudy 37 2.7 34 1.2 90 90 NW 12 19 29.99 1016 10 16.0934 0 0
2:55 am 02:55 Cloudy 37 2.5 34 1.1 91 91 NW 13 20 29.99 1016 10 16.0934 0 0
3:15 am 03:15 Cloudy 37 2.5 34 1 90 90 NNW 12 19 29.99 1016 10 16.0934 0 0
3:35 am 03:35 Cloudy 36 2.2 33 0.7 90 90 NNW 13 20 29.99 1016 10 16.0934 0 0
3:55 am 03:55 Cloudy 36 2.4 33 0.8 89 89 NW 13 20 29.99 1016 10 16.0934 0 0
4:15 am 04:15 Cloudy 36 2.2 34 1 92 92 NW 12 19 29.99 1016 10 16.0934 0 0
4:35 am 04:35 Cloudy 37 2.5 34 1 90 90 NNW 12 19 29.99 1016 10 16.0934 0 0
4:55 am 04:55 Cloudy 36 2.3 34 1.1 92 92 NNW 12 19 29.99 1016 10 16.0934 0 0
5:15 am 05:15 Cloudy 36 2.1 34 1 93 93 NW 9 15 29.99 1016 10 16.0934 0 0
5:35 am 05:35 Cloudy 35 1.4 33 0.5 94 94 NW 7 11 30 1016 10 16.0934 0 0
5:55 am 05:55 Cloudy 35 1.5 33 0.8 95 95 WNW 9 15 30.01 1016 10 16.0934 0 0
6:15 am 06:15 Cloudy 35 1.5 33 0.6 94 94 WNW 8 13 30.01 1016 10 16.0934 0 0
6:35 am 06:35 Cloudy 34 1.3 33 0.6 95 95 WNW 7 11 30.01 1016 10 16.0934 0 0
6:55 am 06:55 Cloudy 35 1.7 33 0.4 91 91 WNW 10 17 30.01 1016 10 16.0934 0 0
7:15 am 07:15 Cloudy 36 2 32 0.1 87 87 NW 15 24 30.01 1016 10 16.0934 0 0
7:35 am 07:35 Cloudy with Light Snow 35 1.7 32 0.2 90 90 NW 15 24 30.01 1016 10 16.0934 0 0
7:55 am 07:55 Cloudy with Light Snow 35 1.5 33 0.5 93 93 NW 16 26 30.02 1017 10 16.0934 0 0
8:15 am 08:15 Cloudy with Light Rain 35 1.5 33 0.7 94 94 NW 18 30 30.02 1017 10 16.0934 0 0
8:35 am 08:35 Cloudy with Light Snow 34 1.3 33 0.7 96 96 NW 16 26 30.02 1017 7 11.26538 0 0
8:55 am 08:55 Cloudy with Light Snow 34 1.3 34 1 98 98 NW 16 26 30.03 1017 3 4.82802 0 0
9:15 am 09:15 Cloudy with Light Snow 34 1.3 34 1 98 98 NW 15 24 30.03 1017 5 8.0467 0.01 0.254
9:35 am 09:35 Cloudy with Light Wintry Mix 34 1.3 34 1 98 98 NW 16 26 30.04 1017 4 6.43736 0.01 0.254
9:55 am 09:55 Cloudy with Light Rain 34 1.3 34 1 98 98 NW 15 24 30.04 1017 5 8.0467 0.01 0.254
10:15 am 10:15 Cloudy with Light Rain 34 1.3 34 1 98 98 NW 17 28 30.04 1017 5 8.0467 0.01 0.254
10:35 am 10:35 Cloudy with Light Rain 35 1.5 34 1.2 98 98 NW 15 24 30.05 1018 5 8.0467 0.01 0.254
10:55 am 10:55 Cloudy with Light Rain 35 1.7 34 1.3 97 97 NW 16 26 30.05 1018 5 8.0467 0.01 0.254
11:15 am 11:15 Cloudy with Light Rain 36 2 34 1.3 95 95 NW 15 24 30.06 1018 5 8.0467 0 0
11:35 am 11:35 Cloudy with Light Rain 36 2 35 1.5 97 97 NNW 17 28 30.05 1017 10 16.0934 0.01 0.254
11:55 am 11:55 Cloudy with Rain 36 2 35 1.5 97 97 NNW 17 28 30.05 1017 5 8.0467 0.01 0.254
12:15 pm 12:15 Cloudy with Light Rain 35 1.8 35 1.5 98 98 NNW 13 20 30.05 1018 4 6.43736 0.01 0.254
12:55 pm 12:55 Cloudy with Light Rain 36 2 35 1.6 97 97 NNW 17 28 30.05 1017 5 8.0467 0.02 0.508
1:35 pm 13:35 Cloudy with Light Rain 35 1.8 35 1.4 97 97 NNW 18 30 30.05 1018 4 6.43736 0.01 0.254
1:55 pm 13:55 Cloudy with Light Rain 35 1.6 34 1.3 98 98 NNW 15 24 30.04 1017 4 6.43736 0.01 0.254
2:55 pm 14:55 Cloudy with Light Wintry Mix 35 1.4 34 1.1 98 98 NNW 16 26 30.05 1018 2.5 4.02335 0.01 0.254
3:15 pm 15:15 Cloudy with Light Rain 34 1.3 34 1 98 98 N 16 26 30.05 1018 2.5 4.02335 0 0
3:55 pm 15:55 Cloudy with Light Snow 34 1 34 1 100 100 N 14 22 30.08 1018 1.75 2.816345 0.01 0.254
4:15 pm 16:15 Cloudy with Light Snow 34 1 33 0.7 98 98 N 17 28 30.08 1018 2 3.21868 0 0
4:55 pm 16:55 Cloudy with Light Snow 33 0.7 32 0.2 97 97 N 15 24 30.09 1019 2.5 4.02335 0.01 0.254
5:15 pm 17:15 Cloudy with Light Snow 33 0.6 32 0.1 97 97 N 15 24 30.1 1019 3 4.82802 0 0
5:35 pm 17:35 Cloudy with Light Snow 33 0.6 32 0 96 96 N 15 24 30.1 1019 10 16.0934 0 0
5:55 pm 17:55 Cloudy with Light Snow 33 0.5 32 0 96 96 N 14 22 30.11 1020 5 8.0467 0 0
6:15 pm 18:15 Cloudy with Light Snow 33 0.3 32 0 98 98 N 16 26 30.11 1020 7 11.26538 0 0
6:35 pm 18:35 Cloudy 33 0.5 32 -0.2 95 95 N 16 26 30.11 1020 10 16.0934 0 0
6:55 pm 18:55 Cloudy 32 0.1 31 -0.5 96 96 N 21 33 30.11 1020 10 16.0934 0 0
7:15 pm 19:15 Mostly Cloudy 32 0 30 -1 93 93 N 18 30 30.11 1020 10 16.0934 0 0
7:35 pm 19:35 Mostly Cloudy 32 -0.1 30 -1.1 93 93 N 16 26 30.12 1020 10 16.0934 0 0
7:55 pm 19:55 Cloudy 32 0 30 -1 93 93 N 17 28 30.12 1020 10 16.0934 0 0
8:15 pm 20:15 Cloudy 32 0 30 -1.1 92 92 N 18 30 30.14 1020 10 16.0934 0 0
8:35 pm 20:35 Cloudy 32 0 30 -1.2 92 92 N 16 26 30.14 1020 10 16.0934 0 0
8:55 pm 20:55 Cloudy 32 0 30 -1.3 91 91 N 21 33 30.14 1020 10 16.0934 0 0
9:15 pm 21:15 Cloudy 32 0 30 -1.3 91 91 N 17 28 30.14 1020 10 16.0934 0 0
9:35 pm 21:35 Cloudy 32 0 30 -1.2 92 92 N 18 30 30.15 1021 10 16.0934 0 0
9:55 pm 21:55 Cloudy 32 0 29 -1.5 90 90 N 16 26 30.15 1021 10 16.0934 0 0
10:15 pm 22:15 Cloudy 32 -0.2 28 -2 88 88 N 21 33 30.16 1021 10 16.0934 0 0
10:35 pm 22:35 Cloudy 31 -0.3 29 -1.7 90 90 N 22 35 30.16 1021 10 16.0934 0 0
10:55 pm 22:55 Cloudy 31 -0.6 29 -1.7 92 92 N 16 26 30.16 1021 10 16.0934 0 0
11:15 pm 23:15 Cloudy 31 -0.7 29 -1.7 93 93 N 16 26 30.16 1021 10 16.0934 0 0
11:35 pm 23:35 Cloudy 30 -0.9 28 -2 92 92 N 15 24 30.17 1022 10 16.0934 0 0
11:55 pm 23:55 Cloudy 29 -1.6 28 -2.5 94 94 N 17 28 30.18 1022 10 16.0934 0 0

Powered by AerisWeather